DW0707 Weather Reports


time (UTC)temp
C
wind
direction
speed
KPH
gust
KPH
rain 1hr
cm
rain 24hr
cm
rain mn
cm
humidity
%
barometer
mb
20260504215001 15 286 4.8 14.5 0.00 0.00 0.00 78 1012.0
20260504214456 15 266 3.2 12.9 0.00 0.00 0.00 77 1011.9
20260504213950 15 245 3.2 9.7 0.00 0.00 0.00 77 1012.0
20260504213443 15 273 3.2 14.5 0.00 0.00 0.00 77 1011.9
20260504212938 15 333 3.2 14.5 0.00 0.00 0.00 78 1012.0
20260504212431 15 165 3.2 17.7 0.00 0.00 0.00 78 1012.1
20260504211420 15 182 4.8 22.5 0.00 0.00 0.00 77 1012.0
20260504210913 15 193 4.8 17.7 0.00 0.00 0.00 77 1012.0
20260504210407 15 130 4.8 17.7 0.00 0.00 0.00 77 1012.0
20260504205902 15 271 4.8 16.1 0.00 0.00 0.00 77 1012.0
20260504205356 15 213 3.2 11.3 0.00 0.00 0.00 78 1012.0
20260504204850 15 76 3.2 12.9 0.00 0.00 0.00 78 1012.0
20260504204344 15 35 3.2 12.9 0.00 0.00 0.00 78 1012.0
20260504203838 15 194 3.2 11.3 0.00 0.00 0.00 78 1012.0
20260504202319 15 314 3.2 12.9 0.00 0.00 0.00 78 1012.1
20260504201813 15 264 3.2 12.9 0.00 0.00 0.00 78 1012.1
20260504201307 15 215 3.2 22.5 0.00 0.00 0.00 78 1012.0
20260504200801 15 178 3.2 22.5 0.00 0.00 0.00 78 1012.2
20260504200256 15 35 4.8 22.5 0.00 0.00 0.00 78 1012.2
20260504195750 15 229 4.8 22.5 0.00 0.00 0.00 78 1012.1
20260504195243 15 244 3.2 8.0 0.00 0.00 0.00 78 1012.1
20260504194737 15 248 3.2 17.7 0.00 0.00 0.00 78 1012.1
20260504194232 15 336 3.2 17.7 0.00 0.00 0.00 79 1012.0
20260504193726 15 19 3.2 17.7 0.00 0.00 0.00 78 1012.0
20260504193220 15 190 4.8 17.7 0.00 0.00 0.00 79 1012.0
20260504192714 15 200 3.2 11.3 0.00 0.00 0.00 79 1012.0
20260504192208 15 190 3.2 11.3 0.00 0.00 0.00 78 1012.0
20260504191702 15 200 3.2 9.7 0.00 0.00 0.00 78 1012.1
20260504191156 15 281 3.2 11.3 0.00 0.00 0.00 78 1012.1
20260504190649 15 191 3.2 9.7 0.00 0.00 0.00 79 1012.0
20260504190143 15 195 3.2 9.7 0.00 0.00 0.00 79 1012.0
20260504185142 15 267 3.2 17.7 0.00 0.00 0.00 79 1012.0
20260504184639 15 169 3.2 17.7 0.00 0.00 0.00 80 1012.0
20260504184143 15 153 3.2 6.4 0.00 0.00 0.00 80 1012.0
20260504183138 15 287 3.2 12.9 0.00 0.00 0.00 80 1012.0
20260504182638 14 206 3.2 16.1 0.00 0.00 0.00 80 1012.0
20260504182138 15 271 3.2 16.1 0.00 0.00 0.00 80 1012.0
20260504181638 15 347 3.2 6.4 0.00 0.00 0.00 81 1012.0
20260504181137 15 347 3.2 6.4 0.00 0.00 0.00 81 1011.9
20260504180638 15 169 1.6 6.4 0.00 0.00 0.00 81 1011.9
20260504175634 14 182 3.2 9.7 0.00 0.00 0.00 82 1011.8
20260504175133 14 182 3.2 8.0 0.00 0.00 0.00 82 1011.7
20260504174634 14 217 3.2 9.7 0.00 0.00 0.00 83 1011.7
20260504174133 14 166 1.6 9.7 0.00 0.00 0.00 83 1011.7
20260504173631 14 204 3.2 6.4 0.00 0.00 0.00 83 1011.7
20260504173131 14 156 3.2 6.4 0.00 0.00 0.00 83 1011.7
20260504172632 14 188 3.2 8.0 0.00 0.00 0.00 84 1011.6
20260504172131 14 161 3.2 9.7 0.00 0.00 0.00 84 1011.7
20260504171632 14 163 3.2 9.7 0.00 0.00 0.00 84 1011.6
20260504171132 13 191 3.2 12.9 0.00 0.00 0.00 85 1011.6
20260504170632 13 204 3.2 12.9 0.00 0.00 0.00 85 1011.6
20260504170131 13 205 1.6 6.4 0.00 0.00 0.00 85 1011.6
20260504160124 13 213 1.6 6.4 0.00 0.00 0.00 88 1011.1
20260504151115 12 205 3.2 16.1 0.00 0.00 0.00 89 1010.8
20260504150115 12 183 3.2 8.0 0.00 0.00 0.00 89 1010.6
20260504140540 12 173 1.6 8.0 0.00 0.00 0.00 90 1010.2
20260504130428 12 109 1.6 12.9 0.00 0.00 0.00 90 1009.7
20260504120316 12 207 3.2 8.0 0.00 0.00 0.00 90 1009.4
20260504110710 12 201 3.2 6.4 0.00 0.00 0.00 89 1009.0
20260504110204 12 200 3.2 12.9 0.00 0.00 0.00 89 1008.9
20260504100606 11 165 3.2 8.0 0.00 0.00 0.00 88 1008.6
20260504100110 11 110 3.2 9.7 0.00 0.00 0.00 88 1008.6
20260504081557 11 270 0.0 0.0 0.00 0.00 0.00 83 1007.4
20260504081057 11 270 0.0 0.0 0.00 0.00 0.00 84 1007.5
20260504080556 11 270 0.0 0.0 0.00 0.00 0.00 83 1007.4
20260504045524 14 262 6.4 11.3 0.00 0.00 0.00 81 1007.4
20260504045024 14 297 8.0 14.5 0.00 0.00 0.00 81 1007.3
20260504044521 14 209 8.0 16.1 0.00 0.00 0.00 81 1007.4
20260504043521 14 248 8.0 16.1 0.00 0.00 0.00 81 1007.3
20260504042522 14 260 8.0 14.5 0.00 0.00 0.00 81 1007.3
20260504042021 14 261 8.0 14.5 0.00 0.00 0.00 81 1007.2
20260504041522 14 263 8.0 12.9 0.00 0.00 0.00 81 1007.3
20260504040520 14 266 8.0 12.9 0.00 0.00 0.00 80 1007.3
20260504040015 14 286 9.7 14.5 0.00 0.00 0.00 79 1007.3
20260504034456 15 283 9.7 16.1 0.00 0.00 0.00 77 1007.1
20260504033950 15 267 8.0 14.5 0.00 0.00 0.00 77 1007.2
20260504033444 15 239 8.0 17.7 0.00 0.00 0.00 76 1007.2
20260504032938 15 274 8.0 17.7 0.00 0.00 0.00 75 1007.1
20260504032432 15 275 8.0 16.1 0.00 0.00 0.00 75 1007.1
20260504031926 15 262 8.0 16.1 0.00 0.00 0.00 75 1007.0
20260504031420 15 264 8.0 16.1 0.00 0.00 0.00 75 1007.1
20260504030914 16 262 8.0 16.1 0.00 0.00 0.00 75 1007.0
20260504030409 16 281 8.0 16.1 0.00 0.00 0.00 75 1007.0
20260504025902 16 269 8.0 16.1 0.00 0.00 0.00 74 1007.1
20260504025357 16 254 8.0 16.1 0.00 0.00 0.00 75 1007.1
20260504024850 16 244 8.0 16.1 0.00 0.00 0.00 75 1007.1
20260504024344 16 248 8.0 19.3 0.00 0.00 0.00 75 1007.0
20260504023332 17 244 8.0 16.1 0.00 0.00 0.00 74 1007.1
20260504022826 17 271 8.0 14.5 0.00 0.00 0.00 73 1007.1
20260504021814 17 292 8.0 17.7 0.00 0.00 0.00 72 1007.2
20260504020256 18 242 8.0 17.7 0.00 0.00 0.00 69 1007.3
20260504015249 18 275 8.0 14.5 0.00 0.00 0.00 66 1007.3
20260504014742 19 255 8.0 17.7 0.00 0.00 0.00 64 1007.3
20260504014240 19 230 8.0 17.7 0.00 0.00 0.00 65 1007.3
20260504013742 18 254 8.0 19.3 0.00 0.00 0.00 65 1007.4
20260504013241 18 246 8.0 19.3 0.00 0.00 0.00 65 1007.5
20260504012741 18 286 9.7 19.3 0.00 0.00 0.00 65 1007.5
20260504011739 19 260 9.7 20.9 0.00 0.00 0.00 63 1007.7
20260504011239 19 276 9.7 20.9 0.00 0.00 0.00 61 1007.7
20260504010738 20 279 9.7 20.9 0.00 0.00 0.00 60 1007.7
20260504005742 20 311 9.7 20.9 0.00 0.00 0.00 57 1007.8
20260504005237 20 280 9.7 20.9 0.00 0.00 0.00 56 1007.8
20260504004737 20 232 9.7 19.3 0.00 0.00 0.00 56 1007.9
20260504004237 20 243 8.0 19.3 0.00 0.00 0.00 55 1007.9
20260504003737 21 265 9.7 17.7 0.00 0.00 0.00 55 1007.9
20260504003237 21 280 9.7 17.7 0.00 0.00 0.00 54 1007.9
20260504002736 21 282 9.7 17.7 0.00 0.00 0.00 54 1008.0
20260504002230 21 313 9.7 17.7 0.00 0.00 0.00 55 1008.0
20260504001725 21 269 9.7 19.3 0.00 0.00 0.00 56 1008.0
20260504000219 21 279 9.7 22.5 0.00 0.00 0.00 57 1008.0
20260503235717 21 280 9.7 24.1 0.00 0.00 0.00 56 1008.1
20260503235222 21 288 9.7 24.1 0.00 0.00 0.00 54 1008.2
20260503234722 21 286 11.3 20.9 0.00 0.00 0.00 55 1008.2
20260503234221 21 262 11.3 20.9 0.00 0.00 0.00 56 1008.3
20260503233721 21 277 11.3 24.1 0.00 0.00 0.00 56 1008.4
20260503233215 21 296 11.3 24.1 0.00 0.00 0.00 57 1008.4
20260503232713 21 269 11.3 27.4 0.00 0.00 0.00 58 1008.5
20260503232213 21 219 11.3 27.4 0.00 0.00 0.00 57 1008.5
20260503231712 21 318 9.7 19.3 0.00 0.00 0.00 58 1008.6
20260503231212 21 232 9.7 19.3 0.00 0.00 0.00 58 1008.6
20260503230712 21 246 11.3 25.7 0.00 0.00 0.00 59 1008.7
20260503230211 21 282 11.3 25.7 0.00 0.00 0.00 58 1008.7
20260503225207 21 273 11.3 25.7 0.00 0.00 0.00 57 1008.9
20260503224707 21 253 9.7 24.1 0.00 0.00 0.00 56 1008.9
20260503224206 21 247 9.7 22.5 0.00 0.00 0.00 56 1009.0
20260503223707 21 283 9.7 22.5 0.00 0.00 0.00 56 1009.0
20260503223207 21 281 8.0 19.3 0.00 0.00 0.00 55 1009.1
20260503222707 22 285 9.7 17.7 0.00 0.00 0.00 56 1009.2
20260503222207 22 259 9.7 17.7 0.00 0.00 0.00 55 1009.3
20260503221706 22 279 9.7 24.1 0.00 0.00 0.00 55 1009.3
20260503221207 22 291 9.7 24.1 0.00 0.00 0.00 55 1009.3
20260503220706 22 238 9.7 24.1 0.00 0.00 0.00 55 1009.3
20260503220206 22 304 9.7 24.1 0.00 0.00 0.00 53 1009.3
20260503215706 22 286 9.7 19.3 0.00 0.00 0.00 52 1009.4